Portland Hillsboro, OR

10:28 AM PDT on September 23, 2017 (GMT -0700)
Portland-Hillsboro

Weather History for KHIO - July, 2013

Change the Weather History Date:

Friday, July 12, 2013

  Actual Average Record
Temperature  
Mean Temperature 59 °F 65 °F  
Max Temperature 73 °F 80 °F 105 °F (1961)
Min Temperature 44 °F 51 °F 40 °F (1962)
Degree Days  
Heating Degree Days 6 2  
Month to date heating degree days 17 29  
Since 1 July heating degree days 17 29  
Cooling Degree Days 0 2  
Month to date cooling degree days 35 21  
Year to date cooling degree days 80 47  
Growing Degree Days 8 (Base 50)    
Moisture  
Dew Point 45 °F    
Average Humidity 65    
Maximum Humidity 92    
Minimum Humidity 38    
Precipitation  
Precipitation 0.00 in 0.02 in 0.16 in (2011)
Month to date precipitation 0.00 0.34  
Year to date precipitation 12.77 21.23  
Snow  
Snow 0.00 in - - ()
Month to date snowfall 0.0  
Since 1 June snowfall 0.0  
Since 1 July snowfall 0.0  
Snow Depth 0.00 in    
Sea Level Pressure  
Sea Level Pressure 30.04 in    
Wind  
Wind Speed 6 mph (NW)    
Max Wind Speed 16 mph    
Max Gust Speed 20 mph    
Visibility 10 miles    
Events      
T = Trace of Precipitation, MM = Missing Value Source: NWS Daily Summary

Daily Weather History Graph

Daily Weather History Graph

Search for Another Location

Airport or City:

Trip Planner

Search our weather history database for the weather conditions in past years. The results will help you decide how hot, cold, wet, or windy it might be!

Date:

Astronomy

Jul. 12, 2013 Rise Set
Actual Time 5:35 AM PDT 8:59 PM PDT
Civil Twilight 4:58 AM PDT 9:36 PM PDT
Nautical Twilight 4:10 AM PDT 10:24 PM PDT
Astronomical Twilight 3:08 AM PDT 11:25 PM PDT
Moon 10:13 AM PDT (7/12) 10:55 PM PDT (7/12)
Length of Visible Light 16h 37m
Length of Day
15h 24m
Waxing Crescent, 18% of the Moon is Illuminated
Jul 12
Waxing Crescent
Jul 15
First Quarter
Jul 22
Full
Jul 29
Last Quarter
Aug 6
New

Hourly Weather History & Observations

Time (PDT) Temp. Dew Point Humidity Pressure Visibility Wind Dir Wind Speed Gust Speed Precip Events Conditions
12:53 AM 54.0 °F 44.1 °F 69% 30.01 in 10.0 mi WNW 10.4 mph - N/A   Clear
1:53 AM 51.1 °F 44.1 °F 77% 30.01 in 10.0 mi NW 5.8 mph - N/A   Clear
2:53 AM 50.0 °F 43.0 °F 77% 30.02 in 10.0 mi WNW 4.6 mph - N/A   Clear
3:53 AM 48.9 °F 43.0 °F 80% 30.02 in 10.0 mi NW 3.5 mph - N/A   Clear
4:53 AM 46.0 °F 42.1 °F 86% 30.02 in 10.0 mi Calm Calm - N/A   Clear
5:53 AM 44.1 °F 42.1 °F 93% 30.02 in 10.0 mi Calm Calm - N/A   Clear
6:53 AM 48.0 °F 45.0 °F 89% 30.03 in 10.0 mi Calm Calm - N/A   Clear
7:53 AM 54.0 °F 46.0 °F 75% 30.03 in 10.0 mi Calm Calm - N/A   Clear
8:53 AM 57.9 °F 45.0 °F 62% 30.02 in 10.0 mi Calm Calm - N/A   Clear
9:53 AM 61.0 °F 45.0 °F 56% 30.02 in 10.0 mi SSE 3.5 mph - N/A   Clear
10:53 AM 64.0 °F 46.0 °F 52% 30.03 in 10.0 mi NW 4.6 mph - N/A   Clear
11:53 AM 70.0 °F 48.0 °F 46% 30.03 in 10.0 mi Variable 4.6 mph - N/A   Clear
12:53 PM 68.0 °F 48.0 °F 49% 30.03 in 10.0 mi NW 6.9 mph - N/A   Scattered Clouds
1:53 PM 70.0 °F 46.0 °F 42% 30.03 in 10.0 mi NNW 9.2 mph - N/A   Scattered Clouds
2:53 PM 70.0 °F 48.0 °F 46% 30.03 in 10.0 mi NW 11.5 mph - N/A   Clear
3:53 PM 71.1 °F 46.0 °F 41% 30.04 in 10.0 mi WNW 8.1 mph - N/A   Mostly Cloudy
4:53 PM 71.1 °F 44.1 °F 38% 30.03 in 10.0 mi NW 10.4 mph - N/A   Scattered Clouds
5:53 PM 71.1 °F 44.1 °F 38% 30.02 in 10.0 mi North 8.1 mph - N/A   Clear
6:53 PM 70.0 °F 46.9 °F 44% 30.03 in 10.0 mi NNW 12.7 mph - N/A   Clear
7:53 PM 66.9 °F 48.0 °F 51% 30.04 in 10.0 mi NNW 12.7 mph - N/A   Clear
8:53 PM 62.1 °F 48.0 °F 60% 30.06 in 10.0 mi NW 11.5 mph - N/A   Clear
9:53 PM 57.9 °F 46.0 °F 65% 30.09 in 10.0 mi NW 6.9 mph - N/A   Clear
10:53 PM 55.9 °F 46.0 °F 69% 30.09 in 10.0 mi WNW 9.2 mph - N/A   Clear
11:53 PM 54.0 °F 46.0 °F 75% 30.11 in 10.0 mi WNW 6.9 mph - N/A   Clear